User: anonymous   Login
Location: Elmsmere
(40.9284°N, 73.8207°W)
Time: 15:10:26
(UTC+00:00)
Language:

SeaSat 1 - Orbit

View from above orbital plane
View from above orbital plane
View from above satellite
View from above satellite

Ground track
Ground track

The orbit data is extracted from the following two-line orbital elements,

1 10967U 78064A   21018.87052545 -.00000052  00000-0  24909-4 0  9992
2 10967 107.9988 161.1138 0001263 280.4372  79.6630 14.43856157235685
Epoch (UTC): 18 January 2021 20:53:33
Eccentricity: 0.0001263
inclination: 107.9988°
perigee height: 745 km
apogee height: 746 km
right ascension of ascending node: 161.1138°
argument of perigee: 280.4372°
revolutions per day: 14.43856157
mean anomaly at epoch: 79.6630°
orbit number at epoch: 23568

The dashed part of the orbit path shows where the satellite is in the earth's shadow,  

DLR